STARLINK-1719, 46331

Orbit data source: Space-Track

STARLINK-1719, 46331 is a payload satellite owned by SpaceX/Seattle (US) in LEO that was launched on Thu, 03 Sep 2020 UTC via an FALCON 9 launch vehicle from the Air Force Eastern Test Range (AFETR). Payload-class satellites include a variety of spacecraft equipped with specific instruments for various scientific and technological missions. These include communications satellites like Starlink; space stations such as the ISS; scientific satellites like the Hubble; Earth observation satellites from companies like Planet Labs, Umbra, and HawkEye 360; GPS; miniature CubeSats for education and research; and military/defense satellites.

Loading next visibility...
Identifier
46331, 2020-062G
Orbit
LEO
Country
Flag of USUS
Related business
Manufacturer
SpaceX/Seattle
Mission
Partially operational Commercial Communications
Bus & Motor
STARLINK, Unknown motor
Mass
260 kg wet, ~248 kg dry
Launch date (UTC)
2020-09-03 (6 years ago)
Launch vehicle
FALCON 9
Launch site
Air Force Eastern Test Range (AFETR)
Object type
Payload
Rocket body
Debris
Shape & HBR
Box + 1 Pan, 10.1 m
Radar Cross Section
13.562 m², Large (>1 m²)

Expand to show TLE details & history
Last TLE update: 5 hours ago

TLE from 5 hours ago
0 STARLINK-1719
1 46331U 20062G   26121.27572795  .00139666  00000-0  11830-2 0  9999
2 46331  53.0390  81.1655 0010500  82.4858 277.7351 15.68709522313077
Epoch: 2026-05-01T06:37Z
TLE epoch observation values (Epoch: 2026-05-01T06:37:02.894Z)
Latitude
0.00001°
Longitude
122.69313°
Altitude
362.547 km
Speed
7.694 km/s
True Right ascension
05h 24m 39s
True Declination
0° 00' 00"
Sunlit
Object was in daylight at epoch
Visualization orbit readout
Latitude
Unknown
Longitude
Unknown
Altitude
Unknown
Speed
Unknown
Apparent Right ascension
Unknown
Apparent Declination
Unknown
Sunlit
N/A
Visualization observer readout
Local Sidereal Time
19:19:56
Azimuth
Unknown
Elevation
Unknown
Doppler factor
Unknown
Orbital elements
Apogee altitude
369.95 km
Perigee altitude
355.794 km
Semi-major axis
6,741.009 km
Eccentricity
0.00105
Inclination
53.039°
RAAN
81.1655°
Arg. of periapsis
82.4858°
True anomaly
277.61585°
Mean anomaly
277.7351°
Eccentric anomaly
277.67548°
Mean motion
3.92153 °/min
Orbital period
91.8 mins
BSTAR
0.001183
Loading maneuver chart data...
Computing Atmospheric mass density...

Documentation

Showing up to 5 results
|